Regional Weather Roundup
Issued by NWS

Home | Current Version | Previous Version | Graphics & Text | Print | Product List | Glossary On
Versions: 1 2 3 4 5 6 7 8 9 10 11 12 13 14 15 16 17 18 19 20 21 22 23 24 25 26 27 28 29 30 31 32 33 34 35 36 37 38 39 40 41 42 43 44 45 46 47 48 49 50
000
ASUS43 KOAX 240110
RWRNE

WEATHER ROUNDUP FOR NEBRASKA
NATIONAL WEATHER SERVICE OMAHA NE
800 PM CDT WED JUL 23 2014

NOTES: SATELLITE DATA IS BEING USED TO AUGMENT CLOUD COVER ABOVE
       12000 FEET.
       "FAIR" INDICATES FEW OR NO CLOUDS BELOW 12,000 FEET WITH NO
       SIGNIFICANT WEATHER AND/OR OBSTRUCTIONS TO VISIBILITY.

  * THESE STATIONS DO NOT REPORT WEATHER SUCH AS RAIN...SNOW OR FOG.

NEZ001>004-019>022-054>056-240200-
NEBRASKA PANHANDLE

CITY           SKY/WX    TMP DP  RH WIND       PRES   REMARKS
SCOTTSBLUFF    CLOUDY    89  67  47 SE8       30.11F HX  92
ALLIANCE       SUNNY     90  62  39 S13       30.12F HX  90
CHADRON        SUNNY     93  64  38 S18       30.05F HX  94
KIMBALL        MOSUNNY   90  58  34 S15G26    30.18S
SIDNEY         MOSUNNY   91  61  36 S17G24    30.17S HX  91
$$

NEZ057>060-069>072-079>082-240200-
SOUTHWEST NEBRASKA

CITY           SKY/WX    TMP DP  RH WIND       PRES   REMARKS
NORTH PLATTE   SUNNY     78  63  59 SE16      30.16R
IMPERIAL       SUNNY     81  63  54 SE17      30.16R
LEXINGTON      SUNNY     79  62  55 SE13      30.17F
MCCOOK         SUNNY     79  65  62 E14       30.15S
OGALLALA       SUNNY     80  65  61 SE15G21   30.15R
$$

NEZ005>010-023>029-035>040-094-240200-
NORTH CENTRAL NEBRASKA

CITY           SKY/WX    TMP DP  RH WIND       PRES   REMARKS
VALENTINE      SUNNY     83  57  41 SE17      30.13F
AINSWORTH      SUNNY     80  56  43 SE12      30.16F
BROKEN BOW     SUNNY     78  61  55 SE12G21   30.18S
O`NEILL        CLEAR     79  56  46 E10       30.17S
ORD            CLEAR     78  60  53 E9        30.16S
THEDFORD       SUNNY     82  60  48 SE14      30.17S
$$

NEZ041-046>049-061>064-073>077-083>087-240200-
SOUTH CENTRAL NEBRASKA

CITY           SKY/WX    TMP DP  RH WIND       PRES   REMARKS
GRAND ISLAND   CLEAR     78  61  55 E5        30.17S
AURORA         CLEAR     78  62  58 E3        30.16S
HASTINGS       CLEAR     79  58  48 E7        30.17S
HEBRON         CLEAR     80  59  48 E6        30.15R
HOLDREGE       CLEAR     78  65  64 E7        30.17S
KEARNEY *      CLEAR     79  63  57 E10       30.18S
YORK           CLEAR     77  64  65 NE6       30.16S
$$

NEZ011>018-030>034-042>045-240200-
NORTHEAST NEBRASKA

CITY           SKY/WX    TMP DP  RH WIND       PRES   REMARKS
NORFOLK        CLEAR     78  59  51 E6        30.16S
ALBION         CLEAR     77  57  50 E6        30.17S
BLAIR          CLEAR     77  58  51 NE6       30.15S HAZE
COLUMBUS *     CLEAR     79  59  50 NE5       30.16R
FREMONT        CLEAR     81  60  48 NE6       30.15S
TEKAMAH        CLEAR     80  62  54 E7        30.14F
WAYNE          CLEAR     77  63  60 E6        30.17S
$$

NEZ050>053-065>068-078-088>093-240200-
SOUTHEAST NEBRASKA

CITY           SKY/WX    TMP DP  RH WIND       PRES   REMARKS
LINCOLN        CLEAR     82  60  47 NE9       30.14R
OMAHA EPPLEY   CLEAR     81  60  48 NE8       30.14S
BEATRICE       CLEAR     79  62  56 E6        30.13R HAZE
FALLS CITY     CLEAR     80  66  62 NE5       30.11S
NEBRASKA CITY  CLEAR     77  63  61 NE3       30.13S
PLATTSMOUTH    CLEAR     79  61  54 NE5       30.14R
$$

NEZ044-045-051>053-067-240200-
OMAHA AREA

CITY           SKY/WX    TMP DP  RH WIND       PRES   REMARKS
OMAHA EPPLEY   CLEAR     81  60  48 NE8       30.14S
BLAIR          CLEAR     77  58  51 NE6       30.15S HAZE
FREMONT        CLEAR     81  60  48 NE6       30.15S
MILLARD        CLEAR     81  61  50 NE5       30.13R
OFFUTT AFB     CLEAR     79  63  57 NE5       30.13S
PLATTSMOUTH    CLEAR     79  61  54 NE5       30.14R
WAHOO          FAIR      79  64  59 E3        30.14S
$$



USA.gov is the U.S. government's official web portal to all federal, state and local government web resources and services.